Location: Beetenbrück
(52.8113°N, 9.5946°E)
Time: 17:03:00
(UTC+00:00)

Cosmos 1656 - Pass Details

Date: 14 April 2026
Orbit: 798 x 846 km, 71.1° (Epoch: 9 May)

Event Time Altitude Azimuth Distance (km) Brightness Sun altitude
Rises 23:40:51 0° 327° (NNW) 3,318 7.5 -27.4°
Reaches altitude 10° 23:43:17 10° 323° (NW) 2,387 6.6 -27.3°
Enters shadow 23:47:57 55° 278° (W) 969 3.9 -27.2°
